Location: Newark
(61.1667°N, 29.8833°E)
Time: 15:00:22
(UTC+00:00)

N. Korean satellite - Visible Passes

Search period start: 17 November 2019 00:00
Search period end: 27 November 2019 00:00
Orbit: 456 x 506 km, 97.2° (Epoch: 16 November)

Date Brightness Start Highest point End Pass type
(mag) Time Alt. Az. Time Alt. Az. Time Alt. Az.
17 Nov 7.9 03:48:03 10° NNE 03:51:41 44° E 03:55:15 10° S visible
17 Nov 6.6 14:33:01 10° SSE 14:36:41 82° ENE 14:40:27 10° NNW visible
17 Nov 9.8 16:08:07 10° SW 16:10:36 17° W 16:13:08 10° NW visible
18 Nov 8.9 03:22:52 10° NNE 03:26:07 28° E 03:29:22 10° SSE visible
18 Nov 6.9 04:56:06 10° N 04:59:44 48° WNW 05:03:19 10° SW visible
18 Nov 6.8 14:07:47 10° SE 14:11:21 50° ENE 14:14:58 10° N visible
18 Nov 9.0 15:41:48 10° SSW 15:44:58 26° W 15:48:11 10° NNW visible
19 Nov 9.7 02:57:53 10° NE 03:00:30 18° E 03:03:06 10° SE visible
19 Nov 6.6 04:30:38 10° NNE 04:34:23 79° WNW 04:38:05 10° SSW visible
19 Nov 8.0 15:15:54 10° S 15:19:24 42° W 15:23:00 10° NNW visible
20 Nov 10.2 02:33:30 10° ENE 02:34:47 11° E 02:36:04 10° ESE visible
20 Nov 7.1 04:05:14 10° NNE 04:08:58 63° ESE 04:12:39 10° S visible
20 Nov 7.0 14:50:15 10° S 14:53:56 71° WSW 14:57:41 10° NNW visible
20 Nov 10.1 16:26:20 10° WSW 16:28:03 13° W 16:29:46 10° NW visible
21 Nov 8.2 03:39:57 10° NNE 03:43:28 38° E 03:46:56 10° SSE visible
21 Nov 7.2 05:13:25 10° N 05:16:52 36° WNW 05:20:16 10° SW visible
21 Nov 6.6 14:24:51 10° SSE 14:28:32 71° ENE 14:32:16 10° NNW visible
21 Nov 9.5 15:59:34 10° SW 16:02:20 20° W 16:05:09 10° NW visible
22 Nov 9.1 03:14:48 10° NE 03:17:53 24° E 03:20:56 10° SSE visible
22 Nov 6.7 04:47:53 10° N 04:51:35 56° WNW 04:55:11 10° SW visible
22 Nov 7.0 13:59:40 10° SE 14:03:11 43° ENE 14:06:46 10° N visible
22 Nov 8.7 15:33:24 10° SSW 15:36:43 31° W 15:40:05 10° NNW visible
23 Nov 9.8 02:49:55 10° NE 02:52:13 15° E 02:54:30 10° SE visible
23 Nov 6.6 04:22:27 10° NNE 04:26:12 89° ESE 04:29:53 10° SSW visible
23 Nov 7.7 15:07:34 10° S 15:11:11 50° W 15:14:51 10° NNW visible
24 Nov 7.5 03:57:04 10° NNE 04:00:45 53° E 04:04:20 10° S visible
24 Nov 7.6 05:30:46 10° N 05:33:58 27° WNW 05:37:06 10° WSW visible
24 Nov 6.7 14:41:59 10° SSE 14:45:43 83° WSW 14:49:29 10° NNW visible
24 Nov 10.0 16:17:34 10° WSW 16:19:44 15° W 16:21:54 10° NW visible
25 Nov 8.5 03:31:48 10° NNE 03:35:12 32° E 03:38:33 10° SSE visible
25 Nov 7.0 05:05:10 10° N 05:08:42 41° WNW 05:12:09 10° SW visible
25 Nov 6.7 14:16:40 10° SSE 14:20:19 60° ENE 14:24:02 10° N visible
25 Nov 9.3 15:51:03 10° SW 15:54:03 23° W 15:57:04 10° NW visible
26 Nov 9.4 03:06:43 10° NE 03:09:35 21° E 03:12:25 10° SE visible
26 Nov 6.6 04:39:39 10° NNE 04:43:22 66° WNW 04:47:00 10° SSW visible
26 Nov 7.2 13:51:32 10° SE 13:55:00 38° ENE 13:58:29 10° N visible
26 Nov 8.4 15:24:59 10° SSW 15:28:27 36° W 15:31:56 10° NNW visible
